CAPE
0 0 0 0 0 0 4 6 12 5 106 254 378 35 42 15 530 820 572 1189 1182 477 662 731 546 692 388 322 426 300 367 713 992 900 866 737 668 437 322 240 245 342 447 488 764 941 1015 1237 1355 1509 1445 1444 1594 1748 1864 1868 1870 1775 1861 1836 1706 1603 1685 1879 1994 2088 1987 1972 2166 2081 1801 1753 1755 1954 2099 2114 2205 2092 2026 1875 1928 2468 2304 3045 3041 3017
0 0 0 0 0 0 0 0 0 0 0 22 288 94 4 26 285 892 1029 966 946 863 527 769 501 292 228 419 411 567 470 555 833 921 914 739 701 415 311 215 234 297 424 533 785 909 1020 1212 1407 1556 1595 1542 1687 1956 1891 1825 1980 1815 1822 1728 1746 1778 1819 1647 1752 2011 2027 2059 2109 2053 1833 1619 1752 2017 1989 2093 1997 1935 2010 2316 2543 2572 2670 2846 3216 3274
0 0 0 0 0 0 0 0 0 0 4 27 74 90 8 113 27 608 1142 627 931 659 710 704 828 418 646 398 570 468 465 734 816 980 1006 814 758 456 244 193 203 237 470 458 680 906 1000 1258 1383 1651 1656 1572 1583 1916 1849 1869 1986 2032 2047 1909 2005 1661 1878 1761 1735 1893 2233 2169 2184 2016 1932 1870 1844 1966 2051 1979 1854 1931 1736 2094 2396 2924 2990 3110 3575 3608
0 0 0 0 0 0 0 0 0 0 0 6 55 89 4 14 17 0 694 768 998 970 884 656 780 446 517 459 538 775 781 895 1036 1004 966 822 778 469 245 175 183 226 408 398 624 768 942 1248 1562 1652 1714 1716 1727 1792 1818 1822 2076 2000 2326 2370 2180 1960 1925 2057 1976 1988 2103 2316 2400 2518 2374 2505 2211 2316 2612 2518 2523 2274 1964 2024 2560 3373 3388 3594 3270 3328
0 0 0 0 0 0 0 0 0 0 0 0 0 0 3 8 3 0 438 564 845 937 808 584 639 397 282 270 322 603 624 861 936 872 871 855 851 454 266 112 155 236 352 368 500 745 888 1220 1341 1570 1641 1654 1752 1672 1794 1731 1841 1850 2334 2556 2550 2355 2164 2256 2140 2127 1993 2182 2249 2374 2558 2793 2806 2691 2624 2487 2108 2341 2500 2381 2432 3175 3605 3358 3488 3322
0 0 0 0 0 0 0 0 0 0 0 0 0 3 14 17 4 399 506 896 958 483 561 570 276 313 546 426 252 298 550 856 1008 946 928 954 765 480 368 130 99 159 246 350 419 627 796 1098 1394 1573 1572 1567 1667 1683 1806 1592 1618 1894 2271 2591 2737 2804 2497 2163 2355 2276 1981 2009 1992 2047 2092 2338 2599 2700 2519 2400 2332 2310 2279 2405 2273 3010 3069 3118 3246 3296
0 0 0 0 0 0 0 0 0 0 0 7 31 6 20 11 19 358 591 843 428 412 567 663 48 331 416 359 445 416 342 687 1076 1018 906 988 853 539 489 178 68 102 141 283 312 408 567 1074 1326 1488 1543 1416 1556 1668 1775 1626 1680 1918 2438 2839 2542 2649 2478 2409 2456 2344 2162 2042 2224 2318 2372 2428 2453 2609 2491 2536 2114 2123 2037 2310 2383 2885 2808 3030 3020 2888
0 0 0 0 0 0 0 0 0 0 0 0 18 6 1 12 171 690 667 575 446 737 995 760 371 240 253 708 543 540 433 436 356 849 910 898 743 497 485 243 106 88 135 205 280 385 601 1033 1182 1315 1431 1275 1386 1532 1718 1532 1770 2023 2650 2877 2552 2463 2321 2233 2478 2455 2175 2074 2239 2407 2248 2146 2500 2244 2378 2471 2560 2298 2170 2712 2387 2191 2589 2912 3050 3037
0 0 0 0 0 0 0 0 0 0 0 94 1 8 35 8 432 626 419 395 653 566 767 863 715 186 76 880 719 716 453 430 395 844 925 891 776 498 429 262 110 77 139 147 236 344 510 848 932 1142 1283 1204 1304 1523 1721 1622 1857 2254 2675 2664 2408 2389 2288 2259 2464 2426 2314 2240 2277 2349 2273 2177 2158 1688 1908 2123 2325 2648 2438 2518 2534 2572 2182 2745 3010 3208
0 0 0 0 0 0 0 0 0 0 0 63 26 11 43 238 78 444 102 275 776 593 522 849 762 321 211 1063 472 602 430 145 585 687 710 861 875 610 358 267 111 89 132 166 178 314 400 690 966 1039 1177 1101 1250 1540 1695 1532 1657 2240 2695 2591 2431 2504 2309 2224 2487 2386 2420 2344 2270 2466 2059 2106 2159 1889 1822 1752 2203 2656 2450 2512 2567 2544 2869 2289 2450 2614
0 0 0 0 0 0 0 0 0 0 0 39 18 58 18 131 111 599 238 405 602 533 480 848 1039 439 310 656 778 379 391 292 131 359 696 945 917 738 390 260 142 89 126 154 136 221 355 558 888 1045 1157 1036 1222 1590 1629 1613 1684 1925 2512 2547 2553 2653 2222 2288 2416 2320 2344 2368 2223 2272 2391 2214 2160 2112 2446 2373 2549 2578 2518 2384 2215 2392 2551 2248 1808 1604
0 0 0 0 0 0 0 0 0 0 0 0 2 1 231 138 140 67 387 606 552 427 498 720 1008 752 378 662 886 672 553 441 239 350 574 842 910 741 325 199 138 102 117 172 144 226 290 464 962 1123 1194 1169 1297 1551 1612 1613 1733 1792 2051 2448 2607 2765 2353 2486 2287 2214 2095 2048 2250 2311 2425 2372 2295 2371 2184 2448 2586 2530 2589 2436 2413 2467 2485 2373 2072 2119
0 0 0 0 0 0 0 0 0 0 0 0 0 0 2 5 21 3 49 603 466 166 884 881 850 692 446 367 1141 776 673 537 376 270 478 603 794 769 336 183 172 149 124 170 194 232 286 482 922 1285 1476 1468 1491 1611 1679 1534 1721 1779 1886 2222 2405 2622 2650 2585 2317 2175 2144 2117 2176 2408 2454 2372 2407 2446 2402 2382 2323 2346 2521 2358 2212 2618 2761 2738 2687 2523
0 0 0 0 0 0 0 0 11 0 0 0 0 0 0 1 78 8 62 36 217 697 493 840 939 458 296 717 597 744 631 509 504 296 503 580 707 738 397 239 168 184 178 131 180 255 321 616 1026 1379 1496 1639 1704 1538 1560 1520 1838 1994 1890 2145 2250 2563 2525 2676 2403 2218 2157 2195 2271 2490 2515 2492 2311 2377 2422 2453 2155 2114 2127 2384 2363 2189 2265 2462 2479 2138
0 0 0 0 0 0 0 0 0 0 2 0 0 0 0 1 16 21 24 26 46 152 842 840 554 371 754 977 698 563 534 448 524 428 509 479 437 738 476 262 194 204 242 252 201 264 462 718 1099 1437 1493 1736 1720 1438 1397 1493 1876 2138 2105 2274 2309 2726 2632 2712 2527 2493 2252 2149 2227 2357 2320 2387 2586 2347 2392 2312 2060 2231 2032 1961 2071 2151 1913 1726 1814 1878
0 0 1 0 143 0 0 0 0 0 0 0 0 0 0 0 0 0 19 174 377 469 804 1007 493 347 437 1068 1357 807 664 491 566 609 576 546 468 741 711 288 186 233 267 293 308 355 458 720 1037 1324 1504 1550 1582 1427 1382 1527 1827 2006 2179 2432 2403 2543 2621 2619 2640 2621 2560 2360 2258 2376 2424 2302 2638 2578 2450 2548 2702 2500 2405 2196 2060 2184 2464 2050 1824 2163
0 0 0 0 4 38 0 0 0 0 17 44 10 4 0 0 0 0 1 31 28 24 78 646 526 556 436 585 872 1070 696 646 640 659 549 445 435 629 794 390 164 270 307 384 331 391 522 609 981 1134 1418 1378 1323 1326 1380 1690 1939 2041 2226 2417 2445 2457 2508 2520 2675 2622 2534 2668 2538 2522 2560 2318 2283 2452 2593 2491 2611 2381 2265 2363 2409 2197 2178 2093 2224 2070
1 9 0 27 340 266 269 115 84 26 0 261 10 0 25 145 120 58 50 408 569 208 376 440 267 411 656 565 1213 1262 971 793 688 654 480 438 471 661 731 364 368 234 296 590 496 537 603 769 994 961 1256 1180 1212 1208 1378 1834 1950 2128 2082 2241 2369 2404 2504 2317 2456 2414 2542 2632 2624 2756 2658 2475 2244 2285 2207 2294 2144 2120 2200 2372 2415 2244 2304 2212 2100 1873
0 1 21 87 578 889 570 589 334 300 118 106 25 232 116 188 59 12 93 35 95 284 72 434 349 349 271 594 880 1211 1074 1050 937 784 502 479 462 446 549 428 398 266 275 656 679 655 657 881 1206 1116 1202 1313 1364 1416 1447 1934 1956 1995 2017 1957 2034 2084 2300 2221 2070 2098 2276 2448 2241 2213 2335 2146 2111 2186 2370 2305 2398 2370 2157 1993 1908 2023 2133 2103 2252 2162
1 0 81 105 90 215 467 471 653 329 249 274 260 222 264 76 104 476 240 630 352 95 94 300 312 662 358 1204 1229 1147 1307 1346 978 816 591 490 404 506 515 411 363 344 304 552 678 712 764 815 1057 1161 1177 1406 1494 1415 1398 1670 1760 1783 1873 1917 1883 2057 2234 2446 2305 2263 2172 2156 2082 1839 2061 2126 2072 2044 2068 2428 2663 2452 2380 2295 1937 2042 1941 2141 2173 2058
6 30 82 305 294 373 1026 713 605 607 549 304 142 148 362 154 488 356 515 219 455 474 287 27 46 605 1167 1185 1211 1438 1440 1567 1148 956 701 521 600 689 569 367 348 345 296 459 516 580 810 912 845 953 1143 1484 1703 1532 1299 1450 1810 1685 1703 1782 1835 2036 2053 2237 2271 2416 2435 2336 2056 1968 2031 1921 1984 1868 1828 1887 2015 2300 2248 2356 2252 2044 2098 2310 2302 2314
12 85 45 151 250 688 375 694 479 713 546 489 106 235 290 538 360 172 246 184 310 258 81 22 25 445 1271 1155 1374 1200 1454 1461 1382 1044 994 988 818 614 518 392 360 377 451 533 416 450 677 860 807 856 1246 1442 1702 1700 1320 1260 1623 1749 1810 2018 2042 2100 2271 2264 2078 2294 2568 2694 2368 1912 1870 1682 1807 1972 1958 1820 2000 2057 2187 2281 2303 2249 2552 2468 2674 2619
59 165 77 2 109 124 163 635 268 464 638 517 348 186 245 302 198 264 198 437 315 270 133 239 144 44 1223 1266 1548 1434 1429 1613 1480 1165 1057 1112 984 669 655 512 541 542 430 363 344 321 445 794 803 804 1238 1643 1936 2042 1669 1686 1926 2117 2246 2418 2400 2208 2327 2361 2448 2170 2680 2881 2817 2411 1978 1712 1728 1906 1951 2136 2362 2271 2097 2025 2067 2341 2280 2356 2372 2604
162 83 99 12 112 107 79 163 611 633 672 638 398 174 233 393 348 275 212 327 249 220 70 24 46 562 1319 1552 1516 1525 1825 1402 1570 1437 1283 1221 1335 1132 811 726 500 509 575 351 316 262 413 662 920 830 1394 1957 2327 2336 2130 2240 2472 2736 2704 2937 2886 2595 2563 2551 2380 2444 2762 3061 2860 2690 2450 2020 1769 1819 2010 2030 2254 2249 2310 1979 2154 2263 2112 2181 2191 2211
27 915 204 223 135 203 177 241 361 324 414 306 256 462 535 456 219 248 276 329 217 125 8 28 180 110 1393 1468 1063 1507 1796 1633 1573 1474 1422 1222 1286 1231 1088 728 623 455 512 354 292 298 462 615 929 1050 1568 2339 2610 2395 2465 2654 3006 3276 3343 3433 3311 3081 2765 2642 2464 2463 2842 2977 2969 2786 2613 2384 1900 2012 2169 2028 1923 1877 1858 1899 1934 2212 2259 2184 2088 2183
151 554 481 101 74 144 24 106 39 162 268 302 861 663 742 760 457 220 49 151 60 230 64 20 96 722 1660 1322 1294 1464 1609 1522 1350 1486 1535 1450 1057 639 756 1142 913 741 569 333 339 340 547 871 1200 1452 2049 2627 2616 2552 2886 3104 3202 3546 3739 3726 3629 3501 2924 2829 2778 2562 2844 3271 3018 2993 2783 2692 2530 2244 2175 1975 1862 1780 1732 1656 1586 1837 2234 2217 2252 2443
432 959 1058 1124 615 272 153 1079 162 675 761 715 1032 1016 928 758 564 207 116 343 164 107 21 30 70 411 1162 1639 1107 1162 1355 1341 1206 1232 1166 1200 858 730 709 764 998 777 800 486 450 427 782 1213 1598 1942 2480 2780 2582 2324 2905 3239 3317 3668 3822 3879 3592 3802 3478 3314 3379 3291 3265 3446 3149 3307 3277 2779 2464 2476 2194 2071 2000 1720 1703 1593 1539 1566 1905 2250 2324 2384
442 648 735 1051 737 715 552 996 950 949 1145 1060 917 868 961 978 665 283 184 235 138 14 4 499 692 7 1735 1358 1290 1322 1391 1280 1129 1221 1133 1210 1191 1297 708 805 636 828 781 830 815 930 1239 1410 1638 2159 2490 2622 2541 2120 2538 3112 3254 3634 3801 3766 3623 3790 3700 3561 3818 3945 3887 3908 3548 3656 3750 3318 2557 2381 2227 2366 2314 2084 1889 1665 1586 1740 1891 2333 2518 2352
216 138 948 793 823 981 1082 1062 871 915 971 1035 819 825 963 913 1047 274 55 101 174 28 9 998 1052 1475 1790 1427 1202 1357 1375 1218 1220 1630 1451 1379 1587 1617 1197 948 1031 766 745 762 1017 1210 1275 1642 1996 2276 2260 2428 2213 1951 2316 2840 2945 3434 3697 3770 3770 3870 4052 4150 4291 4334 4340 4257 3938 4028 4230 3962 3336 2871 2610 2471 2615 2466 2024 2011 2028 2029 2221 2490 2567 2281
160 648 602 943 1030 1056 1233 1181 810 574 420 733 880 1035 1118 915 1034 1026 576 362 243 181 30 63 496 1870 1535 1606 1297 1270 1317 1474 1452 1581 1461 1198 1226 961 1267 1080 693 582 826 927 1263 1498 1714 1655 1788 2097 2258 2234 2317 2214 1928 2136 2668 3071 3363 3645 3831 4045 4341 4419 4564 4648 4569 4444 4245 4190 4403 4593 4177 3765 3482 3255 3203 3198 2679 2366 2420 2207 2406 2608 2639 2488
250 650 752 743 1027 904 1051 605 662 614 804 600 577 997 1051 1119 1034 1051 1099 906 799 477 12 60 1067 1594 1462 1508 1266 1198 1322 1259 1383 1305 1255 913 782 1175 1147 1397 1436 1547 1812 1790 1700 1676 2086 2225 2212 2108 2238 2207 2220 2194 2194 2340 2501 2807 2792 2845 3403 4006 4335 4523 4667 4574 4582 4559 4622 4381 4462 4736 4938 4832 4434 3960 3632 3607 3485 2937 2959 2708 2810 2847 2821 2808
1 696 812 773 382 326 552 851 834 655 690 973 1040 1134 1043 1016 1113 767 1027 1177 989 651 485 556 1275 1544 1536 1598 1184 1194 1135 1036 1096 1190 1234 1103 916 560 1034 944 862 894 935 1278 1583 1662 1864 1930 2105 2070 2371 2596 2496 2210 2196 2339 2520 2829 2896 3072 3337 3394 3500 3741 4011 4270 4419 4493 4453 4220 4033 3783 3920 4277 4636 4410 4022 3774 3767 3761 3282 3426 3602 3324 3006 3395
60 372 525 596 158 298 536 912 667 327 564 367 1098 847 828 746 658 470 552 738 883 556 444 40 630 2005 1716 1346 1062 981 918 908 977 948 1026 1044 1138 768 894 875 564 540 681 605 754 956 1312 1373 1212 1504 1952 2098 1983 2407 2776 2708 2588 2800 2960 2994 3064 3145 3325 3481 3316 3521 3850 3915 3831 3794 3714 3532 3337 3443 3467 3956 4383 3940 3595 3559 3785 3604 3381 2951 3039 2751
28 27 196 167 36 302 188 434 96 140 138 480 938 839 671 787 535 611 611 459 637 405 334 198 1368 1512 1267 1189 1024 1015 970 821 786 854 829 814 796 820 719 675 674 670 633 582 609 857 955 975 811 1032 1370 1670 1892 1990 2142 2329 2689 2627 2708 2617 2964 3045 3272 3566 3579 3482 3258 3289 3534 3384 2605 2626 3082 3142 3212 3473 3959 4042 3535 3370 3072 3103 3135 3042 3152 3193
28 23 33 12 28 353 654 47 56 68 64 562 1008 827 633 546 608 547 556 488 430 364 143 542 1377 1392 1082 1043 844 937 973 836 698 858 889 754 696 608 534 523 573 663 886 538 636 604 543 676 873 1027 1467 1510 1302 1662 1874 2061 2206 2331 2655 2765 2429 2356 3191 3403 3299 3238 3143 3087 3063 2849 2530 3078 3100 3110 3135 3198 3587 3886 3707 3500 3208 3118 3032 3047 3266 3643
0 0 1 3 3 58 14 17 2 254 354 834 638 664 366 420 471 495 643 569 382 302 155 779 942 1170 1023 854 696 730 855 697 687 745 762 729 713 701 704 660 652 633 562 560 602 561 629 635 616 782 994 1089 1196 1356 1098 1516 1975 2288 2456 2294 2326 2281 2350 2502 2385 2565 2834 2692 2931 2903 2736 2967 3084 2951 2896 2809 2217 2778 3130 3343 3473 3163 3150 3243 3412 3379
0 0 0 106 113 4 27 75 64 291 642 509 815 597 505 758 718 596 602 389 552 228 146 423 687 907 724 800 760 801 792 743 777 800 834 684 680 681 626 617 624 616 614 544 570 414 365 484 557 610 674 850 1149 1180 1332 1275 1142 1599 2078 2381 2302 2500 2382 2444 2476 2645 2597 2556 2967 2429 2452 2701 2962 2689 2577 2675 2616 2757 3066 3228 3362 3146 3220 3323 3424 3294
165 0 0 0 57 2 27 123 221 213 209 529 756 103 298 321 258 248 588 774 510 284 365 144 716 1085 1022 933 827 774 628 747 673 592 605 587 554 558 607 671 635 591 548 571 541 540 389 488 604 652 662 720 742 807 871 874 778 797 934 1270 1678 2322 2490 2724 2635 2716 2600 2551 2046 2072 1972 2239 2403 2032 1710 1740 1684 2275 2871 2831 2763 2863 2851 3042 3144 3052
35 5 307 0 0 0 0 0 72 103 332 625 656 362 222 188 202 254 462 654 619 329 401 411 560 827 1104 1110 958 749 861 655 524 507 471 422 409 434 528 551 596 590 501 482 491 527 615 600 584 627 655 729 749 722 724 767 696 892 982 1548 1744 1871 2159 2251 2542 2448 1944 1869 2006 1574 1475 1430 1328 1357 1419 1406 1405 1517 1718 1653 1789 1774 1488 1583 1730 1982
0 0 0 0 0 0 0 0 66 263 638 671 472 404 193 20 76 364 76 127 514 104 474 285 532 276 706 621 590 712 943 530 329 276 287 424 431 414 429 426 456 525 561 576 542 517 608 624 657 684 726 853 810 737 704 526 396 387 409 475 621 757 1052 1342 1294 1086 1107 1034 1098 1051 1028 861 766 720 728 877 965 1177 1269 1304 1355 1387 1541 1394 1150 1189
0 0 0 0 0 0 0 0 0 349 576 557 554 311 153 131 130 106 108 436 460 446 580 602 323 515 366 613 636 703 541 438 334 282 297 290 356 371 445 489 482 498 466 544 607 583 591 709 785 724 637 643 592 558 608 657 579 526 453 454 370 326 390 522 540 564 747 789 718 627 404 568 581 688 831 833 453 664 1123 1111 1361 1461 1372 1300 969 912
0 0 2 0 0 0 0 0 57 612 1009 783 400 266 200 193 101 100 856 546 667 628 699 806 726 649 570 570 545 475 364 352 338 320 326 362 371 370 366 375 406 438 432 419 586 611 545 647 864 863 711 658 601 563 532 566 556 499 440 474 377 302 382 436 361 419 569 643 488 438 646 637 808 891 699 572 553 579 810 801 1005 1067 1300 1338 960 801
116 55 4 0 85 6 26 14 57 0 732 618 341 251 116 383 874 816 951 1011 984 857 834 897 752 808 705 471 410 490 486 435 408 414 450 389 380 377 416 406 396 392 366 384 433 526 515 513 613 694 633 567 497 521 556 576 582 446 404 344 296 279 358 412 429 437 475 467 459 378 407 391 369 300 362 526 404 395 538 524 604 881 1239 867 790 667
639 6 1 77 168 129 8 0 247 1281 1027 668 614 849 242 1331 1167 1168 1162 1068 1011 967 940 992 1078 1012 636 564 569 512 452 444 451 426 366 315 300 300 350 394 404 422 442 438 412 394 426 427 467 493 511 515 512 453 358 428 461 412 401 319 305 335 330 384 469 419 440 441 507 420 406 488 449 468 354 324 224 293 225 268 446 531 573 676 675 620
1027 538 688 474 561 307 914 1502 1269 1238 1027 764 1093 1333 1440 1323 1234 1344 1243 1154 1116 968 1035 1047 1061 998 735 515 521 507 483 436 404 329 262 204 173 165 176 206 268 316 350 385 425 371 355 376 397 433 491 451 332 282 278 269 330 336 300 253 336 362 371 323 301 356 387 405 403 337 359 316 229 165 134 115 172 204 298 266 336 387 405 400 436 476
507 530 685 764 846 978 1091 1316 1200 1189 1281 1189 1271 1335 1378 1377 1363 1475 1381 1308 1188 1077 1214 1130 993 998 885 698 421 354 351 339 309 263 218 161 140 108 72 79 103 146 164 194 220 267 270 299 312 295 328 334 348 233 231 220 170 196 191 226 270 328 359 316 302 274 230 181 164 124 121 121 107 118 138 138 149 171 178 186 179 167 162 154 178 191
687 556 826 480 1097 748 1196 1219 1330 1262 1118 1372 1180 1290 1344 1556 1325 1321 1358 1333 1266 1256 1056 1069 1082 1058 919 804 405 345 343 336 280 242 175 136 89 80 0 0 0 0 0 16 15 95 130 147 146 172 188 191 186 139 142 180 175 166 55 210 234 236 194 170 168 199 173 164 37 12 0 0 0 0 0 122 144 158 168 160 144 177 140 132 152 166
721 477 721 710 870 802 1541 1343 1413 1302 1352 1315 1440 1480 1265 1493 1433 1434 1376 1266 1394 1406 1348 1277 1111 1200 1029 536 300 315 296 266 234 197 155 116 84 2 0 0 0 0 4 4 1 0 0 0 0 0 0 0 0 0 25 0 0 0 0 0 4 73 132 164 122 122 154 26 88 52 6 16 0 0 20 18 20 87 87 72 37 52 112 138 149 148
990 387 490 712 535 1080 1352 1258 1133 1183 1343 1330 1434 1605 1570 1529 1394 1279 1298 1353 1115 1232 1201 1231 1203 936 876 670 280 238 205 285 164 127 61 8 6 21 40 29 10 1 0 12 43 26 9 9 8 1 0 0 0 0 0 0 0 0 0 0 12 72 80 70 50 8 1 1 1 1 66 0 5 57 23 0 94 71 48 82 0 89 0 73 94 97
248 204 791 485 446 502 716 1141 1190 1039 935 1256 1537 1562 1557 1437 1400 1342 1281 1219 1265 1215 1159 1072 929 820 761 570 450 267 340 316 314 312 188 77 34 32 56 36 12 4 14 28 30 42 54 36 36 28 14 8 5 1 0 0 0 0 0 14 34 84 143 109 74 48 46 56 20 0 0 0 0 0 0 0 0 0 0 0 0 0 0 50 0 47
182 1167 341 316 305 300 820 1299 1323 1400 1019 1249 1687 1627 1555 1467 1429 1393 1342 1344 1414 1312 1137 987 793 714 587 469 364 384 448 455 363 335 216 190 209 108 38 20 15 17 14 19 47 73 72 49 50 64 36 12 3 2 3 3 0 0 0 8 40 57 104 114 79 57 64 70 61 32 2 0 0 3 1 0 0 0 0 0 0 0 0 0 0 0
Wind_Speed
nan nan nan nan nan nan nan nan nan nan 20 17 20 nan nan nan 20 18 22 15 12 13 11 12 15 27 28 19 17 13 10 9 7 6 6 6 5 6 8 9 9 10 9 10 9 5 4 2 2 2 2 2 1 3 1 3 3 3 4 3 3 4 5 7 8 9 9 10 11 11 11 11 12 13 13 14 13 12 13 11 11 11 12 13 13 13
nan nan nan nan nan nan nan nan nan nan nan nan 20 nan nan nan 22 26 21 19 16 11 15 16 15 24 27 20 16 17 11 8 6 6 6 6 6 5 8 9 9 10 8 10 8 5 3 0 1 2 3 2 1 2 2 3 3 3 4 4 4 5 6 8 10 11 11 11 11 11 11 11 11 12 14 14 15 14 13 13 14 14 14 14 14 13
nan nan nan nan nan nan nan nan nan nan nan nan nan nan nan 25 nan 23 21 17 17 10 14 15 15 26 32 22 18 15 12 12 9 9 8 7 6 6 7 9 10 10 9 9 8 5 2 1 2 3 3 3 2 2 3 3 3 3 4 5 5 7 7 10 11 13 13 13 14 14 13 14 13 15 17 16 16 16 14 14 14 15 14 14 13 12
nan nan nan nan nan nan nan nan nan nan nan nan nan nan nan nan nan nan 19 19 15 11 13 12 14 26 34 30 24 20 17 15 11 10 9 8 7 6 6 7 8 11 10 9 7 5 2 2 4 4 3 3 2 2 3 4 4 4 5 5 5 7 9 10 11 14 14 15 16 19 17 18 18 18 19 19 18 18 15 14 13 14 13 13 11 10
nan nan nan nan nan nan nan nan nan nan nan nan nan nan nan nan nan nan 23 19 17 12 14 16 16 25 29 24 23 22 17 14 11 10 8 8 8 8 6 5 7 10 10 8 6 4 4 3 4 4 3 2 1 2 3 5 4 5 5 5 6 8 10 11 12 14 16 16 17 20 19 20 20 20 19 18 17 16 16 14 13 11 12 12 12 10
nan nan nan nan nan nan nan nan nan nan nan nan nan nan nan nan nan 23 20 16 14 12 10 15 15 19 26 21 21 27 20 12 13 10 7 7 7 8 5 4 nan 8 10 8 6 4 4 3 5 5 3 3 2 2 3 6 5 5 6 7 7 9 12 13 14 16 18 18 18 19 19 19 19 18 18 17 15 14 13 13 11 9 10 9 10 9
nan nan nan nan nan nan nan nan nan nan nan nan nan nan nan nan nan 21 20 19 20 16 14 11 nan 14 21 21 21 21 16 14 13 9 9 8 6 6 6 5 nan 8 11 8 7 4 3 4 5 5 4 4 2 2 3 5 5 7 7 8 8 10 14 16 17 18 20 19 20 19 19 18 18 17 16 16 15 13 13 13 10 10 9 9 9 7
nan nan nan nan nan nan nan nan nan nan nan nan nan nan nan nan 21 22 22 22 25 21 13 10 12 11 15 18 22 18 13 12 12 9 9 8 5 5 7 6 5 nan 10 10 8 5 3 4 5 5 3 5 3 2 2 5 6 7 8 10 10 12 16 18 18 19 21 20 19 19 18 18 18 16 14 14 14 13 12 12 10 9 9 7 9 8
nan nan nan nan nan nan nan nan nan nan nan nan nan nan nan nan 27 24 23 24 27 21 12 11 11 9 nan 16 20 17 14 14 11 9 10 7 6 4 5 6 5 nan 8 10 8 6 4 3 5 6 4 4 3 2 2 5 6 7 10 11 12 13 17 18 17 18 19 19 18 17 17 17 17 15 13 13 12 11 11 10 9 9 8 7 7 7
nan nan nan nan nan nan nan nan nan nan nan nan nan nan nan 21 nan 21 24 22 23 20 16 14 12 10 8 12 13 12 12 11 10 10 10 9 7 5 5 5 5 nan 7 7 9 7 5 3 6 7 5 4 4 3 2 4 7 8 10 12 13 14 17 17 16 17 16 16 16 16 15 14 14 13 12 11 9 9 9 9 8 8 9 8 6 5
nan nan nan nan nan nan nan nan nan nan nan nan nan nan nan 24 19 22 23 21 21 18 19 17 13 8 11 13 10 9 6 11 14 11 12 14 9 7 5 5 6 nan 8 7 10 9 6 4 4 7 6 5 5 5 3 5 7 9 11 12 14 15 16 15 14 14 13 14 14 14 14 12 11 11 10 10 8 8 8 9 9 9 9 9 8 6
nan nan nan nan nan nan nan nan nan nan nan nan nan nan 30 23 17 nan 20 21 18 20 30 20 12 7 7 16 13 7 8 5 10 13 12 14 11 8 7 6 6 8 9 8 9 9 7 5 4 6 7 7 6 6 5 6 8 10 12 13 13 14 14 13 12 12 12 12 12 13 12 11 11 10 9 9 8 8 8 9 9 9 9 9 9 8
nan nan nan nan nan nan nan nan nan nan nan nan nan nan nan nan nan nan nan 15 17 21 29 23 16 11 3 8 17 12 7 5 4 16 15 13 13 11 8 6 8 9 9 8 8 9 5 5 5 5 8 10 9 8 5 6 8 11 12 12 12 13 13 12 11 11 11 11 11 11 11 10 9 9 9 8 8 8 8 8 8 8 9 8 9 9
nan nan nan nan nan nan nan nan nan nan nan nan nan nan nan nan nan nan nan nan 18 25 24 20 16 8 9 8 10 11 9 8 5 9 16 14 13 13 11 8 9 10 10 8 8 7 5 6 6 6 8 10 10 7 6 7 9 12 13 12 12 12 12 11 11 10 10 11 11 10 10 9 8 8 7 7 8 7 7 7 8 9 9 9 10 9
nan nan nan nan nan nan nan nan nan nan nan nan nan nan nan nan nan nan nan nan nan 18 20 19 15 14 9 15 15 11 5 5 6 3 15 17 15 15 13 12 10 10 11 10 8 6 5 7 7 8 8 9 10 8 7 8 10 12 13 12 12 11 11 10 10 10 10 10 10 10 9 9 8 7 6 7 7 7 7 7 8 8 9 8 8 8
nan nan nan nan 21 nan nan nan nan nan nan nan nan nan nan nan nan nan nan 19 18 16 14 14 12 14 14 15 18 15 13 7 6 5 10 17 20 17 16 14 11 12 11 10 9 7 6 8 8 9 9 8 10 9 9 8 10 11 13 12 11 11 10 10 9 10 9 9 9 8 8 7 7 6 6 5 5 6 6 6 7 7 8 8 5 6
nan nan nan nan nan nan nan nan nan nan nan nan nan nan nan nan nan nan nan nan nan nan nan 13 11 10 14 11 13 10 9 10 9 8 6 13 20 19 18 16 12 12 12 11 9 9 7 7 8 9 9 9 9 10 10 10 9 9 12 12 11 11 10 9 8 9 8 8 8 6 6 6 5 4 4 4 4 5 4 4 5 6 7 6 5 5
nan nan nan nan 15 12 10 11 nan nan nan 20 nan nan nan 29 30 nan nan 18 17 16 15 15 14 13 9 13 9 11 10 11 11 12 10 9 17 20 22 18 13 12 13 12 11 11 9 9 9 10 10 10 10 10 11 11 9 9 10 11 10 10 9 8 7 7 7 7 6 5 4 4 4 3 3 3 2 2 2 2 3 4 4 5 5 4
nan nan nan nan 19 21 13 12 12 14 14 13 nan 29 19 22 nan nan nan nan nan 16 nan 13 13 15 16 15 10 12 14 12 12 15 16 10 10 17 22 19 14 13 15 15 14 13 11 9 9 11 11 11 11 10 11 11 11 11 9 10 10 9 8 7 7 7 8 6 8 7 4 2 2 3 2 2 2 2 0 1 2 3 2 3 3 2
nan nan nan 25 nan 24 16 12 11 16 15 17 24 21 24 nan 28 24 21 24 21 nan nan 11 14 20 18 19 16 13 14 12 11 14 15 13 6 15 23 22 16 12 14 16 14 13 12 10 9 11 12 12 12 11 11 11 13 11 11 10 10 10 10 10 9 9 8 7 8 8 6 5 4 4 4 4 4 3 2 2 2 3 4 4 3 3
nan nan nan 24 23 11 11 11 10 14 15 15 15 19 25 26 35 28 25 19 20 20 17 nan nan 18 20 17 16 15 13 12 11 11 12 13 11 12 21 24 22 16 14 15 15 14 14 12 10 12 13 14 14 13 12 12 13 13 14 13 11 11 10 10 11 11 11 11 10 9 8 7 6 4 5 4 4 3 3 4 4 4 4 4 3 2
nan nan nan 18 18 13 12 12 15 13 12 15 17 21 20 26 27 19 19 18 20 21 nan nan nan 24 22 19 18 16 15 12 10 10 12 13 13 12 20 23 25 23 18 16 16 15 15 15 13 14 16 16 15 14 12 13 13 14 16 17 15 15 14 14 13 13 14 13 13 10 10 9 9 8 8 6 6 5 6 6 7 6 5 4 4 3
nan 17 nan nan 16 18 17 9 9 16 18 24 28 23 19 27 23 20 22 22 22 25 24 13 13 nan 19 21 20 19 18 15 12 10 12 14 13 14 20 30 33 31 25 19 17 17 16 17 16 15 15 16 16 15 14 15 15 15 16 18 17 17 16 16 16 15 15 15 14 12 12 11 10 10 9 8 8 7 7 8 8 8 7 5 4 5
17 nan nan nan 17 23 nan 18 17 19 24 24 26 21 23 25 29 28 33 29 24 25 nan nan nan 18 17 23 22 20 20 17 15 12 13 15 14 15 21 33 36 33 30 25 23 22 19 19 19 18 17 18 18 17 16 16 17 17 17 17 18 17 17 17 16 16 17 16 15 14 13 13 12 11 11 10 10 9 8 9 9 9 7 5 4 4
nan 17 15 16 20 16 20 21 20 21 21 21 18 24 26 30 23 26 26 26 24 25 nan nan 15 15 18 20 22 20 22 20 17 15 13 13 14 15 18 32 39 34 31 29 25 23 21 20 20 20 19 19 18 18 18 18 18 18 18 18 17 17 17 17 17 17 17 16 15 15 14 13 13 13 12 11 11 10 10 8 8 9 7 6 5 5
15 17 16 13 nan 11 nan 16 nan 12 15 17 23 23 27 27 20 23 nan 21 nan 26 nan nan nan 17 14 23 22 21 20 19 18 17 14 13 14 14 12 25 39 36 33 28 24 22 22 23 23 22 21 21 19 19 20 19 18 18 18 17 18 17 16 16 18 17 18 16 15 16 15 14 14 13 13 12 11 11 10 9 8 8 8 7 6 7
14 14 16 16 15 15 12 21 15 7 13 13 22 22 23 23 21 18 25 22 17 25 nan nan nan 14 9 18 21 19 19 18 17 16 15 13 13 14 11 14 31 38 35 26 22 22 26 26 25 24 22 22 20 20 21 20 19 19 18 17 18 19 18 18 18 17 16 15 15 16 15 14 13 14 14 13 12 11 11 10 10 9 9 10 9 9
13 10 18 19 24 17 14 15 17 12 13 18 17 21 22 23 23 14 16 20 24 nan nan 24 19 nan 18 19 17 18 18 18 18 17 16 13 13 12 16 14 18 28 33 32 26 24 25 26 26 25 24 24 22 21 22 21 20 19 19 18 18 19 20 20 19 18 17 16 15 16 15 14 14 14 14 14 14 12 12 12 11 12 12 12 12 11
11 7 15 15 20 18 16 17 16 14 14 14 15 18 20 22 22 15 nan 20 24 nan nan 31 26 20 20 20 16 16 17 18 17 17 17 17 15 15 15 18 16 17 24 31 33 30 28 29 30 29 28 27 25 23 23 23 21 21 21 20 19 20 20 21 21 20 19 18 17 17 17 16 16 16 16 15 16 14 13 13 14 14 14 14 13 14
4 10 12 14 18 16 15 16 17 18 18 15 19 22 22 23 24 19 16 19 22 24 nan nan 21 21 23 19 17 16 17 19 19 17 17 19 20 21 18 21 21 20 21 26 36 38 35 32 32 33 33 32 29 28 25 23 23 22 22 22 21 21 22 22 21 21 20 19 19 19 19 19 19 19 18 18 18 17 15 14 14 14 15 14 14 14
3 11 13 16 13 11 13 14 15 19 22 22 22 23 25 26 25 24 19 18 23 26 nan nan 18 19 23 20 17 19 19 20 21 21 20 20 20 20 23 29 32 34 32 33 39 44 44 41 38 37 36 34 32 29 27 27 26 24 22 23 23 23 24 23 22 21 21 21 21 22 22 22 22 22 20 20 20 19 18 16 16 15 15 15 15 15
nan 12 12 15 13 12 8 11 14 15 20 25 25 26 28 26 24 27 22 26 28 32 34 22 15 17 19 18 22 22 23 25 24 22 21 19 21 20 18 23 29 33 35 36 40 47 50 48 44 42 41 39 36 32 29 29 28 26 24 25 25 25 25 24 23 22 23 23 24 24 23 22 22 22 23 22 21 21 20 19 17 17 18 17 16 18
nan 8 10 9 4 9 10 10 16 15 21 18 23 27 28 26 26 25 24 25 30 37 31 nan 19 23 19 18 21 20 21 24 25 23 23 24 22 20 17 20 25 30 34 35 38 44 50 47 44 42 40 38 36 36 34 32 29 28 28 27 26 26 25 24 23 23 24 25 25 25 24 23 23 23 23 24 23 23 23 21 20 20 19 19 18 18
nan nan 4 9 nan 6 4 9 nan 15 16 23 26 27 31 29 28 26 27 29 35 34 19 19 21 22 20 20 22 21 23 24 25 26 24 19 20 22 20 19 22 28 33 37 40 46 51 48 42 41 40 38 38 38 35 34 32 30 29 28 27 25 26 26 26 25 25 26 27 27 26 24 25 25 26 26 26 26 25 24 23 23 23 23 23 21
nan nan nan nan nan 5 8 nan nan nan nan 21 24 25 29 30 28 28 27 29 34 32 28 20 23 26 26 28 27 26 26 26 28 29 26 23 21 20 18 17 20 27 35 42 47 51 53 48 44 44 43 40 39 36 36 34 33 31 30 30 28 27 27 28 28 27 28 28 28 29 28 27 27 27 28 28 28 28 27 27 26 26 26 26 26 26
nan nan nan nan nan nan nan nan nan 21 24 19 23 24 29 27 27 25 26 29 31 30 21 21 30 27 26 27 23 22 23 24 27 29 28 27 24 20 17 15 15 19 31 44 53 56 53 49 47 46 44 40 36 35 35 37 37 35 31 30 29 28 28 29 28 29 30 29 30 31 30 30 30 28 30 30 27 27 28 29 28 28 28 28 29 29
nan nan nan 4 7 nan nan nan nan 12 12 17 17 21 24 25 26 30 30 30 34 33 22 23 29 28 24 24 20 18 19 21 24 24 25 25 24 21 18 16 15 15 20 36 53 57 52 49 49 47 43 41 39 37 37 37 36 37 38 35 33 31 31 31 31 32 32 32 33 31 31 31 31 32 32 31 29 29 29 30 30 30 31 31 31 31
6 nan nan nan nan nan nan 3 5 7 8 17 22 26 26 26 27 28 29 25 33 39 26 26 31 27 21 18 16 14 15 20 20 20 21 21 22 21 18 17 17 16 13 23 42 51 47 44 45 46 45 44 43 43 42 38 35 34 34 35 36 35 35 35 36 35 33 32 32 32 33 34 33 32 31 31 30 30 32 32 33 32 32 31 33 34
nan nan 7 nan nan nan nan nan nan 7 17 14 20 22 24 22 22 21 23 24 36 41 32 25 32 30 29 25 19 14 14 18 17 17 17 19 20 20 19 18 18 18 15 15 26 35 33 29 33 39 43 45 45 43 42 42 39 37 37 37 35 34 35 37 38 36 38 36 35 35 34 34 33 33 35 35 33 30 30 30 32 33 32 32 32 33
nan nan nan nan nan nan nan nan nan 12 15 18 21 22 24 nan nan 16 nan 28 35 39 30 23 26 32 33 32 29 19 16 15 14 14 16 19 19 19 19 18 18 20 21 19 18 20 21 21 23 26 29 32 34 37 42 44 44 43 43 44 42 42 43 43 44 44 39 35 39 38 36 36 36 36 33 34 36 35 31 31 33 34 33 35 35 35
nan nan nan nan nan nan nan nan nan 11 15 17 21 21 21 21 17 18 21 25 26 29 29 26 27 32 35 34 32 27 25 20 17 15 17 18 18 18 17 17 18 20 22 22 22 20 19 19 19 18 17 17 21 25 31 37 42 45 46 45 46 46 46 46 46 43 42 44 42 40 38 38 39 36 34 37 37 37 36 35 35 38 38 38 39 39
nan nan nan nan nan nan nan nan nan 14 12 14 17 19 19 16 20 20 24 23 19 15 16 23 26 30 28 29 29 24 18 18 18 18 19 17 17 17 17 17 18 21 23 24 25 23 23 23 22 20 18 17 18 20 21 25 31 36 41 47 47 46 48 52 50 45 43 43 45 43 42 42 40 38 39 41 42 42 40 40 39 41 43 42 42 43
11 nan nan nan nan nan nan nan nan nan 14 10 17 18 16 18 22 21 22 25 23 17 15 14 17 17 18 19 19 16 16 17 19 20 19 18 18 19 20 20 20 21 22 23 23 24 24 24 24 23 21 20 21 21 22 25 26 26 29 35 38 40 44 50 54 54 52 51 50 50 49 49 47 45 45 46 46 45 47 46 42 42 48 49 47 46
15 nan nan nan 9 8 nan nan 14 16 14 12 7 12 16 22 21 19 19 21 20 18 17 19 18 16 17 16 14 13 14 16 18 20 21 21 21 22 23 24 24 23 22 22 22 22 24 24 24 24 24 23 24 25 24 25 26 24 22 22 20 25 30 35 41 48 52 52 50 50 51 52 53 53 52 53 53 52 51 49 50 52 52 50 49 50
15 12 14 10 13 8 13 17 16 14 14 14 13 15 18 19 21 21 19 18 18 18 16 18 20 19 19 18 16 14 15 17 20 21 22 22 22 22 22 23 23 23 22 21 21 20 21 22 24 25 25 24 26 25 25 25 27 28 26 18 13 15 17 19 21 26 33 36 34 32 33 38 42 46 47 46 48 51 54 56 56 56 55 54 53 53
15 13 11 7 13 13 16 17 16 16 16 17 16 15 15 17 20 22 22 20 19 18 17 19 19 20 19 18 18 18 20 22 23 23 23 22 21 19 nan nan 18 18 18 18 18 19 19 20 21 23 24 24 24 24 23 23 26 29 24 20 19 18 18 21 20 19 20 21 20 19 18 21 24 27 28 28 26 33 38 43 48 54 58 59 56 55
15 13 11 10 15 8 11 10 12 16 15 16 17 15 17 17 19 21 24 24 22 19 19 19 20 20 19 19 20 21 23 24 25 24 22 21 nan nan nan nan nan nan nan nan nan nan 17 18 19 20 21 21 21 22 23 25 26 27 nan 23 22 21 18 20 21 21 20 20 nan nan nan nan nan nan nan 22 21 20 21 24 29 37 43 45 45 44
12 11 10 15 12 9 14 13 13 14 15 15 15 15 16 17 19 20 23 25 25 23 22 21 21 22 21 23 23 23 25 25 25 24 22 21 nan nan nan nan nan nan nan nan nan nan nan nan nan nan nan nan nan nan nan nan nan nan nan nan nan nan 22 21 23 24 24 nan nan nan nan nan nan nan nan nan nan nan nan nan nan nan 25 26 27 28
18 11 12 13 11 15 14 12 12 12 13 14 15 16 17 18 20 21 22 23 25 27 27 25 24 25 24 26 25 26 27 27 27 26 nan nan nan nan nan nan nan nan nan nan nan nan nan nan nan nan nan nan nan nan nan nan nan nan nan nan nan nan nan nan nan nan nan nan nan nan nan nan nan nan nan nan nan nan nan nan nan nan nan nan nan nan
14 11 16 11 11 9 9 11 11 10 11 13 15 17 17 19 20 22 22 22 22 24 25 27 28 29 28 28 28 28 29 28 28 28 29 nan nan nan nan nan nan nan nan nan nan nan nan nan nan nan nan nan nan nan nan nan nan nan nan nan nan nan 25 26 nan nan nan nan nan nan nan nan nan nan nan nan nan nan nan nan nan nan nan nan nan nan
11 16 11 10 11 13 16 15 9 13 16 16 16 17 18 19 19 19 20 20 20 21 23 25 28 29 29 29 30 31 31 30 31 30 31 30 29 28 nan nan nan nan nan nan nan nan nan nan nan nan nan nan nan nan nan nan nan nan nan nan nan nan 24 24 nan nan nan nan nan nan nan nan nan nan nan nan nan nan nan nan nan nan nan nan nan nan
Wind_Direction
nan nan nan nan nan nan nan nan nan nan 209 207 208 nan nan nan 238 231 232 247 249 253 242 252 231 208 208 198 200 215 213 208 213 244 254 256 252 258 269 283 285 291 305 309 318 336 330 353 81 163 161 130 109 123 147 98 90 89 98 113 122 152 153 148 143 140 135 142 146 148 142 144 143 142 143 140 144 145 147 151 152 148 147 146 147 150
nan nan nan nan nan nan nan nan nan nan nan nan 200 nan nan nan 219 223 230 225 229 229 249 244 241 208 200 200 198 214 213 220 216 221 239 253 259 247 270 287 291 292 290 307 307 328 323 99 99 172 166 122 99 119 92 74 67 87 95 108 135 151 141 139 137 138 137 141 142 142 140 141 145 141 136 141 138 139 151 147 146 137 147 144 146 151
nan nan nan nan nan nan nan nan nan nan nan nan nan nan nan 226 nan 233 237 237 238 231 233 238 240 207 198 203 195 213 204 218 215 213 210 220 232 231 262 286 293 293 292 299 307 328 315 247 126 175 167 131 121 98 72 68 47 79 104 122 139 139 142 138 137 135 140 140 143 139 144 138 144 137 135 137 138 138 138 135 135 140 143 141 146 151
nan nan nan nan nan nan nan nan nan nan nan nan nan nan nan nan nan nan 234 233 235 237 231 245 240 209 199 196 195 199 211 218 221 219 208 201 209 221 250 274 289 287 285 299 309 329 290 220 149 165 171 137 140 110 79 57 44 86 109 111 125 133 134 135 136 134 136 142 141 141 140 142 138 136 139 139 136 133 133 131 134 137 139 136 142 148
nan nan nan nan nan nan nan nan nan nan nan nan nan nan nan nan nan nan 223 227 232 239 230 239 226 203 199 203 202 206 211 212 222 225 212 203 197 205 219 256 278 282 284 293 309 311 279 217 147 158 168 133 141 104 73 64 57 101 83 97 114 129 128 135 133 132 135 140 135 136 137 138 139 136 131 130 129 129 131 130 129 136 137 140 148 158
nan nan nan nan nan nan nan nan nan nan nan nan nan nan nan nan nan 217 214 213 221 243 253 248 228 201 205 202 210 205 202 213 214 220 221 219 201 212 188 237 nan 281 284 289 301 295 274 216 171 167 159 117 148 122 91 82 69 84 85 95 114 131 130 131 129 128 130 132 130 129 129 128 129 129 128 127 127 127 126 127 132 139 134 140 146 155
nan nan nan nan nan nan nan nan nan nan nan nan nan nan nan nan nan 211 207 198 206 208 246 240 nan 217 214 213 214 211 200 199 211 219 225 226 212 206 182 201 nan 286 290 287 280 286 283 220 176 163 154 119 139 154 110 91 88 88 93 103 113 129 131 131 129 127 130 129 129 125 126 128 129 131 133 134 131 133 132 136 133 140 135 139 137 149
nan nan nan nan nan nan nan nan nan nan nan nan nan nan nan nan 210 214 205 201 202 218 238 220 228 225 212 214 218 214 202 207 203 217 226 224 220 207 183 191 234 nan 287 289 293 301 271 219 173 156 169 136 148 181 116 95 97 95 103 108 116 132 133 133 133 129 130 131 131 129 129 133 132 132 137 134 137 139 136 137 130 129 128 133 132 148
nan nan nan nan nan nan nan nan nan nan nan nan nan nan nan nan 205 212 207 205 208 206 222 240 239 234 nan 221 224 236 216 200 208 230 245 231 235 217 176 182 226 nan 277 286 283 282 277 236 165 167 177 151 155 168 120 103 111 110 114 118 123 133 135 136 133 133 131 133 133 132 135 135 135 136 137 134 135 136 131 127 124 123 118 120 124 134
nan nan nan nan nan nan nan nan nan nan nan nan nan nan nan 222 nan 213 206 210 218 212 218 254 262 229 234 255 240 241 220 206 214 225 231 245 238 235 190 172 214 nan 258 270 276 272 273 233 165 173 183 177 167 176 153 127 123 120 125 126 128 134 138 140 135 133 131 132 134 133 134 132 133 134 133 127 128 123 115 109 105 103 106 99 97 110
nan nan nan nan nan nan nan nan nan nan nan nan nan nan nan 221 216 218 210 213 217 213 226 250 288 245 227 269 269 274 222 209 207 225 238 242 237 241 210 183 202 nan 256 253 267 272 276 256 175 175 189 192 193 180 167 143 134 128 130 133 132 137 141 141 136 132 129 131 133 133 131 127 126 124 126 122 115 106 97 92 81 79 80 87 85 80
nan nan nan nan nan nan nan nan nan nan nan nan nan nan 217 215 213 nan 218 228 212 221 236 237 271 279 234 255 271 297 226 229 217 220 240 245 244 247 233 197 197 228 245 253 258 266 277 267 204 183 185 207 205 190 168 152 149 138 139 141 139 141 141 144 139 133 130 132 132 132 129 125 125 120 120 110 100 90 83 78 76 76 75 73 73 85
nan nan nan nan nan nan nan nan nan nan nan nan nan nan nan nan nan nan nan 228 226 219 238 240 262 264 279 245 257 284 302 334 206 209 230 240 237 248 249 219 203 212 236 241 248 255 255 251 234 207 197 207 210 192 174 152 157 154 148 145 142 143 143 146 145 137 132 132 133 132 130 126 127 118 115 105 95 85 81 79 71 67 72 70 77 74
nan nan nan nan nan nan nan nan nan nan nan nan nan nan nan nan nan nan nan nan 219 233 235 237 254 247 240 268 292 288 310 352 358 206 221 229 230 239 247 233 212 207 220 225 240 249 242 240 239 236 219 209 203 200 182 162 164 169 162 152 145 146 146 151 148 146 138 134 137 135 134 134 130 120 112 106 96 84 83 77 73 62 59 63 66 65
nan nan nan nan nan nan nan nan nan nan nan nan nan nan nan nan nan nan nan nan nan 228 239 244 247 243 267 262 259 260 267 340 355 249 222 220 218 226 232 230 214 212 210 205 220 238 238 246 245 241 238 217 203 204 195 177 173 178 172 165 156 152 150 153 152 154 146 145 139 142 139 140 137 127 120 113 108 97 77 68 54 63 68 63 63 69
nan nan nan nan 227 nan nan nan nan nan nan nan nan nan nan nan nan nan nan 208 212 220 234 250 235 245 237 267 269 262 247 264 309 319 235 220 216 219 223 220 209 208 211 204 201 219 230 246 247 239 243 231 208 210 204 196 185 179 180 176 166 160 155 156 156 157 154 152 153 148 144 138 138 140 129 120 109 101 91 69 70 51 64 77 69 68
nan nan nan nan nan nan nan nan nan nan nan nan nan nan nan nan nan nan nan nan nan nan nan 237 234 251 254 270 256 249 253 264 285 304 285 229 220 218 223 223 205 201 205 204 194 202 215 235 248 239 242 239 226 215 213 211 197 185 189 185 177 170 167 161 159 158 162 162 158 154 149 141 133 125 111 107 80 76 66 73 67 59 53 51 69 61
nan nan nan nan 256 257 226 241 nan nan nan 220 nan nan nan 211 209 nan nan 217 215 211 224 228 218 240 246 246 245 243 245 266 273 278 287 248 220 221 224 223 209 203 207 204 199 199 203 217 240 241 236 241 238 228 222 221 212 201 192 193 189 182 175 171 168 165 169 169 164 166 159 141 130 131 106 121 120 96 80 33 54 64 38 45 42 55
nan nan nan nan 236 232 235 236 252 239 231 212 nan 217 217 218 nan nan nan nan nan 212 nan 223 232 237 221 246 244 243 234 245 260 270 277 267 220 214 226 228 213 201 208 206 203 203 202 211 233 242 240 239 241 237 229 229 223 218 207 200 197 190 184 179 186 186 182 183 183 186 182 171 161 164 174 198 208 195 197 21 352 23 21 16 20 34
nan nan nan 250 nan 215 219 236 245 255 242 208 213 213 211 nan 211 217 217 206 204 nan nan 213 233 235 222 215 210 218 219 231 253 275 292 303 260 212 217 227 225 206 207 211 206 202 204 208 224 241 245 242 240 241 232 230 225 226 224 217 203 202 196 193 194 205 194 196 193 198 205 204 205 206 201 218 231 242 274 287 311 330 344 353 346 2
nan nan nan 269 267 262 244 235 229 252 251 233 220 219 217 215 213 205 211 200 200 209 213 nan nan 228 230 211 199 206 212 212 241 261 274 297 293 233 215 221 230 224 211 211 208 206 210 209 215 231 236 239 236 234 234 229 227 223 227 226 217 213 209 206 203 208 205 203 205 206 209 216 222 223 226 227 243 237 254 268 284 302 307 305 321 317
nan nan nan 260 272 267 243 217 192 212 233 225 219 225 207 213 216 215 217 217 209 206 nan nan nan 205 208 200 195 202 211 210 232 255 267 288 302 265 220 217 231 231 220 211 212 209 211 214 214 223 230 234 235 232 235 235 232 227 228 226 221 220 212 211 211 212 214 210 212 213 218 218 230 231 230 237 246 255 267 276 287 292 293 304 302 295
nan 222 nan nan 242 242 252 256 226 211 230 221 224 211 195 205 205 203 201 222 216 208 214 216 184 nan 192 190 192 200 206 210 223 252 263 272 290 283 240 224 227 230 220 206 205 211 211 217 217 223 232 236 240 234 233 236 235 231 230 230 228 225 223 217 213 217 219 219 217 219 221 224 234 238 242 246 248 262 272 283 285 287 293 289 282 292
228 nan nan nan 239 257 nan 240 226 222 227 221 217 212 212 201 210 197 202 201 206 213 nan nan nan 197 187 192 189 198 208 213 226 238 257 262 274 280 245 224 225 226 219 206 199 205 208 215 220 222 229 232 234 234 235 235 240 241 237 235 233 232 234 229 224 222 226 225 225 226 227 230 230 243 249 253 253 261 266 270 278 280 282 278 264 272
nan 234 220 235 240 244 255 246 244 241 225 221 231 230 205 205 199 210 209 208 193 209 nan nan 171 203 207 191 196 196 206 216 224 238 254 260 267 279 250 222 218 225 225 216 204 202 209 214 223 224 230 232 233 234 234 235 237 242 244 242 239 236 238 237 233 231 234 233 234 235 232 237 240 242 248 251 253 263 266 266 264 268 271 268 263 262
216 217 226 232 nan 248 nan 247 nan 244 250 247 233 227 220 211 210 208 nan 211 nan 211 nan nan nan 205 213 208 199 197 205 218 222 229 240 255 266 284 268 219 214 221 227 217 205 203 208 213 221 225 230 231 232 234 236 235 236 239 245 248 245 243 241 240 239 236 238 237 241 242 242 239 244 250 254 254 253 259 261 261 262 262 267 263 261 264
231 239 233 237 236 235 224 237 270 200 232 243 240 232 231 234 226 220 199 203 202 206 nan nan nan 210 191 209 200 196 205 209 219 224 228 237 264 285 287 235 215 220 226 219 207 205 210 212 218 223 228 229 230 233 234 236 235 237 241 245 248 246 246 245 244 245 244 244 244 249 252 252 250 248 253 257 252 252 256 258 260 263 262 265 266 267
236 228 241 238 247 262 253 247 247 235 230 235 243 245 242 239 248 234 203 205 216 nan nan 202 214 nan 218 215 204 205 207 213 212 219 227 229 237 246 278 264 237 226 228 222 214 212 214 213 214 218 222 224 225 227 231 233 235 236 237 241 246 250 250 248 250 251 251 249 247 250 257 258 257 254 251 252 255 251 253 258 258 261 259 260 267 265
260 244 242 231 254 260 266 255 253 250 240 245 246 250 246 240 245 248 nan 197 214 nan nan 210 188 207 224 222 213 216 212 220 221 225 228 234 245 241 253 264 255 244 233 227 220 215 212 210 210 212 215 217 216 219 225 228 232 234 234 234 241 247 252 254 256 257 256 256 256 254 254 255 257 259 260 258 257 256 253 254 257 261 261 263 260 260
260 253 246 240 240 241 245 245 240 232 236 245 239 242 242 237 237 240 231 191 202 197 nan nan 182 208 221 223 218 219 222 226 231 235 241 241 240 233 234 254 249 245 243 229 223 219 213 209 210 211 214 215 214 214 216 217 223 229 231 236 239 243 248 251 254 258 259 260 259 257 255 254 254 257 262 263 263 261 257 256 258 262 268 266 265 260
300 269 268 256 252 239 235 237 232 234 226 236 242 238 232 228 232 233 224 223 200 185 nan nan 185 210 218 222 229 230 229 236 237 242 246 249 254 253 244 237 239 239 237 231 226 225 220 214 211 212 214 216 215 214 213 214 217 222 227 231 234 235 239 244 247 250 253 254 254 253 253 252 253 255 261 264 264 265 262 258 256 258 259 262 262 258
nan 275 286 262 239 232 222 213 226 229 236 237 241 235 230 229 230 221 222 220 208 190 180 172 186 212 225 230 236 238 238 237 237 241 250 254 263 267 259 240 233 232 232 231 228 226 221 215 212 213 213 214 212 212 213 214 215 217 222 228 235 240 240 239 237 240 244 246 247 249 251 251 254 254 257 259 263 264 265 264 262 260 260 260 262 262
nan 301 306 284 228 214 213 209 208 213 237 240 239 232 227 232 228 219 220 212 201 195 186 nan 178 215 230 234 243 245 246 243 240 241 250 253 253 264 262 243 230 224 226 226 226 226 222 215 212 214 215 216 216 215 213 214 215 214 218 224 229 235 241 246 245 244 242 243 244 246 246 248 250 253 252 255 257 259 262 262 263 263 262 262 259 258
nan nan 293 300 nan 278 294 233 nan 217 225 232 238 233 225 222 221 217 217 206 191 187 188 163 187 208 223 230 237 243 243 242 241 240 241 249 257 250 251 256 238 220 216 219 219 220 220 213 210 212 215 215 217 217 217 217 214 215 217 220 226 232 235 240 244 245 247 247 247 247 245 245 247 250 251 251 251 253 256 258 259 259 259 259 261 259
nan nan nan nan nan 256 264 nan nan nan nan 229 235 228 226 224 223 220 216 205 191 182 199 187 212 205 218 224 229 235 241 242 240 239 238 246 254 252 249 248 241 225 213 211 213 214 215 209 206 210 211 212 217 219 219 222 222 220 222 223 224 227 232 237 241 243 245 247 248 248 248 249 251 251 253 253 253 252 253 255 256 257 257 258 259 260
nan nan nan nan nan nan nan nan nan 225 234 237 231 228 230 229 227 221 222 213 196 188 208 194 221 210 213 224 222 229 237 243 241 234 237 244 249 255 254 256 249 228 219 211 207 207 209 207 206 208 209 208 211 217 221 223 222 221 223 225 226 227 230 234 237 241 243 246 248 250 252 251 252 252 254 256 253 255 256 256 257 259 259 257 258 260
nan nan nan 254 265 nan nan nan nan 256 247 235 233 230 225 227 230 226 225 213 204 200 202 190 213 217 215 216 223 228 235 246 243 240 242 247 251 255 260 261 255 243 228 214 208 206 205 207 208 210 209 210 213 217 221 223 225 225 223 225 227 229 232 235 237 241 245 247 250 254 257 256 256 257 256 255 255 255 255 257 259 260 260 262 263 262
256 nan nan nan nan nan nan 232 273 267 242 239 227 234 229 241 246 240 236 225 210 210 210 180 195 213 225 214 224 235 235 240 243 244 247 254 257 260 262 265 257 249 236 214 205 204 208 213 215 216 216 218 223 225 226 226 229 231 229 227 229 231 237 240 242 244 247 251 254 255 255 255 255 257 257 257 256 254 255 255 258 259 259 259 261 262
nan nan 245 nan nan nan nan nan nan 227 249 247 244 237 239 247 254 245 237 228 214 214 214 186 171 197 209 207 215 230 228 234 244 246 251 261 265 265 265 263 258 249 245 222 205 205 209 213 213 214 218 221 223 228 232 234 237 238 237 235 233 232 236 238 243 244 244 242 248 253 254 252 254 255 257 257 257 254 254 257 257 257 256 256 259 262
nan nan nan nan nan nan nan nan nan 236 242 250 244 242 243 nan nan 245 nan 209 206 216 225 202 178 178 194 190 199 204 207 236 245 251 255 260 268 273 272 271 264 251 243 239 229 222 217 212 210 211 217 220 220 223 229 236 240 241 238 234 233 235 238 241 243 243 246 247 246 246 250 252 252 251 252 258 258 256 256 257 259 260 259 258 258 261
nan nan nan nan nan nan nan nan nan 255 258 255 240 241 245 246 237 239 225 214 206 215 214 207 205 188 181 186 198 207 210 227 241 254 259 260 263 268 272 276 278 272 260 251 248 246 240 234 231 230 229 228 231 232 233 237 239 239 240 240 237 232 235 239 240 240 242 243 243 246 248 250 250 253 254 255 256 254 254 254 257 263 264 262 261 262
nan nan nan nan nan nan nan nan nan 253 244 244 246 243 253 240 233 232 233 235 241 234 212 193 193 193 194 202 200 203 217 234 243 249 252 253 254 257 264 274 282 284 281 272 264 261 260 257 254 252 248 246 246 244 242 243 242 239 241 243 239 233 230 230 232 237 241 242 242 242 245 249 252 251 254 255 255 255 256 254 252 257 260 260 262 262
224 nan nan nan nan nan nan nan nan nan 247 231 261 252 229 213 220 224 238 239 243 254 250 229 207 199 218 224 220 208 218 230 238 242 246 251 252 254 261 269 274 279 281 281 275 270 268 266 261 257 258 258 258 256 252 249 246 242 243 245 244 240 234 232 230 229 231 235 238 239 240 242 248 252 253 255 255 256 254 252 250 255 258 260 259 261
236 nan nan nan 228 206 nan nan 219 222 236 249 234 228 240 223 229 234 233 240 245 252 258 257 252 247 248 248 238 235 238 240 241 248 251 252 255 257 262 267 271 272 274 275 277 274 271 270 268 265 259 257 260 262 256 253 253 251 250 244 233 231 232 233 232 231 232 235 238 242 243 243 244 248 252 257 259 258 258 256 252 251 253 256 258 260
242 227 224 220 238 207 225 226 236 234 232 238 234 245 242 241 230 229 234 241 247 250 257 263 264 260 258 256 252 251 250 247 248 249 252 253 256 256 257 259 263 265 263 264 267 270 271 272 271 270 267 264 264 268 270 268 264 260 256 249 231 229 229 230 228 226 229 231 235 240 243 242 241 242 246 253 260 262 260 257 255 255 256 260 263 264
243 239 242 231 249 252 240 232 241 239 238 244 240 241 253 247 238 238 245 243 241 249 253 258 265 265 264 260 253 246 246 252 255 255 258 259 256 251 nan nan 253 255 257 260 262 264 268 270 270 269 269 270 268 266 268 271 270 266 264 257 254 257 253 245 241 241 245 245 241 242 246 249 246 244 243 249 259 264 260 258 257 258 259 261 263 264
252 256 252 244 257 251 246 253 244 243 238 237 240 241 240 242 241 239 242 243 246 245 248 253 258 264 265 261 254 252 251 251 251 250 250 249 nan nan nan nan nan nan nan nan nan nan 262 265 267 267 266 264 265 265 267 268 266 266 nan 266 267 268 265 263 263 267 272 272 nan nan nan nan nan nan nan 263 267 264 259 256 257 259 259 259 259 259
264 258 240 254 272 239 251 266 254 243 233 234 234 238 241 243 244 241 238 241 243 243 243 246 251 254 255 255 255 255 255 253 253 251 250 246 nan nan nan nan nan nan nan nan nan nan nan nan nan nan nan nan nan nan nan nan nan nan nan nan nan nan 272 274 277 277 277 nan nan nan nan nan nan nan nan nan nan nan nan nan nan nan 260 256 258 265
251 265 243 266 256 258 258 261 263 256 246 240 235 231 235 240 244 245 244 241 240 242 241 241 241 246 248 251 254 256 256 254 253 253 nan nan nan nan nan nan nan nan nan nan nan nan nan nan nan nan nan nan nan nan nan nan nan nan nan nan nan nan nan nan nan nan nan nan nan nan nan nan nan nan nan nan nan nan nan nan nan nan nan nan nan nan
261 248 250 259 257 269 266 276 290 264 257 247 243 247 248 248 249 249 247 244 239 238 238 242 243 245 248 250 252 254 257 257 259 259 260 nan nan nan nan nan nan nan nan nan nan nan nan nan nan nan nan nan nan nan nan nan nan nan nan nan nan nan 266 270 nan nan nan nan nan nan nan nan nan nan nan nan nan nan nan nan nan nan nan nan nan nan
250 258 258 247 234 240 263 285 283 224 248 253 253 251 253 253 253 255 254 252 250 246 244 245 247 248 249 250 249 252 254 256 258 259 261 261 262 264 nan nan nan nan nan nan nan nan nan nan nan nan nan nan nan nan nan nan nan nan nan nan nan nan 262 263 nan nan nan nan nan nan nan nan nan nan nan nan nan nan nan nan nan nan nan nan nan nan